カタログに戻る

COSMOS 1275 DEB

LostPO
NORAD 42219·DEBRIS·🇷🇺 Russia

打ち上げ Jun 4, 1981 から Plesetsk Cosmodrome

Loading…

次のパス (今後24時間)

TLE

古いSource: Space-Track

元期: Oct 31, 2022, 03:10 UTC

1 42219U 81053UK  22304.13205266  .00001907  00000-0  11238-2 0  9995
2 42219  82.9607 247.9044 0048638 292.6763  66.9272 14.06891431444355

AllMySatでCOSMOS 1275 DEBをリアルタイム追跡

Download on the App Store